Weather reports worldwide

Advertisment
Baltasound, United Kingdom (3002): temperature & dewpoint: 13.03.2019 08:00:00 - 19.03.2019 08:00:00 (GMT)Baltasound, United Kingdom (3002): temperature -20cm: 13.03.2019 08:00:00 - 19.03.2019 08:00:00 (GMT)Baltasound, United Kingdom (3002): wind speed & gusts: 13.03.2019 08:00:00 - 19.03.2019 08:00:00 (GMT)Baltasound, United Kingdom (3002): wind direction: 13.03.2019 08:00:00 - 19.03.2019 08:00:00 (GMT)Baltasound, United Kingdom (3002): reduced air pressure: 13.03.2019 08:00:00 - 19.03.2019 08:00:00 (GMT)Baltasound, United Kingdom (3002): visibility: 13.03.2019 08:00:00 - 19.03.2019 08:00:00 (GMT)Baltasound, United Kingdom (3002): precipitation: 13.03.2019 08:00:00 - 19.03.2019 08:00:00 (GMT)
Date & Time tt [°C] td [°C] tt -20cm [°C] ff [km/h] ff [kn] fx [km/h] fx [kn] dd ppp [hPa] vv [km] rr [mm]
19.03.2019 08:00:00 7,1 6,0 - 37 20 46 25 S 1013,2 15 0,0
19.03.2019 07:00:00 6,8 5,6 - 31 17 - - S 1013,6 19 0,0
19.03.2019 06:00:00 6,6 5,4 - 31 17 - - S 1014,3 18 0,0
19.03.2019 05:00:00 6,1 4,4 - 29 16 - - S 1014,5 18 0,0
19.03.2019 04:00:00 5,8 3,6 - 29 16 - - S 1015,3 25 0,0
19.03.2019 03:00:00 5,3 3,0 - 29 16 - - S 1015,9 24 0,0
19.03.2019 02:00:00 5,5 3,0 - 31 17 - - S 1016,3 21 0,0
19.03.2019 01:00:00 4,8 2,7 - 26 14 - - S 1016,8 27 0,0
19.03.2019 00:00:00 4,0 2,2 - 22 12 - - SSW 1017,3 22 0,0
18.03.2019 23:00:00 3,7 1,6 - 22 12 - - SSW 1017,5 30 0,0
18.03.2019 22:00:00 3,1 0,8 - 21 11 - - S 1017,6 40 0,0
18.03.2019 21:00:00 2,8 0,0 - 21 11 - - S 1017,8 40 0,0
18.03.2019 20:00:00 1,6 -1,3 - 16 9 - - S 1017,6 35 0,0
18.03.2019 19:00:00 2,0 -1,1 - 16 9 - - SSW 1017,3 45 0,0
18.03.2019 18:00:00 1,9 -2,1 - 11 6 - - SW 1017,3 40 0,0
18.03.2019 17:00:00 5,8 -2,0 - 9 5 - - W 1016,7 35 0,0
18.03.2019 16:00:00 6,1 -2,3 - 13 7 - - W 1016,3 40 0,0
18.03.2019 15:00:00 6,3 -2,1 - 15 8 - - W 1015,7 35 0,0
18.03.2019 14:00:00 6,4 -1,7 - 13 7 - - W 1015,2 30 0,0
18.03.2019 13:00:00 6,3 -1,3 - 13 7 - - WNW 1014,9 35 0,0
18.03.2019 12:00:00 5,8 -1,4 - 16 9 - - WNW 1014,3 35 0,0
18.03.2019 11:00:00 5,7 -0,8 - 18 10 - - WNW 1013,9 27 0,0
18.03.2019 10:00:00 5,0 -0,7 - 21 11 - - WNW 1013,1 50 0,0
18.03.2019 09:00:00 5,0 0,1 4,7 18 10 - - NW 1012,1 29 0,0
18.03.2019 08:00:00 2,7 -0,7 - 13 7 - - NW 1011,3 40 0,0
18.03.2019 07:00:00 2,9 0,1 - 16 9 - - NNW 1010,6 35 0,0
18.03.2019 06:00:00 2,8 -0,1 - 22 12 46 25 NNW 1009,6 35 0,2
18.03.2019 05:00:00 2,9 0,4 - 28 15 - - NNW 1009,0 10 0,2
18.03.2019 04:00:00 3,0 -0,4 - 26 14 48 26 NNW 1008,3 35 0,0
18.03.2019 03:00:00 3,6 1,3 - 29 16 - - NW 1007,5 14 0,0
18.03.2019 02:00:00 2,8 0,7 - 34 18 48 26 NNW 1006,9 30 0,0
18.03.2019 01:00:00 3,6 -1,4 - 29 16 55 30 N 1006,1 24 0,4
18.03.2019 00:00:00 4,2 -1,2 - 31 17 48 26 NNW 1005,2 27 0,0
17.03.2019 23:00:00 4,1 -2,1 - 35 19 54 29 NNW 1004,3 35 0,0
17.03.2019 22:00:00 3,9 -0,6 - 37 20 54 29 NNW 1003,5 24 0,0
17.03.2019 21:00:00 3,8 -0,7 - 39 21 78 42 N 1002,8 20 0,0
17.03.2019 20:00:00 3,8 0,7 - 44 24 67 36 N 1001,8 11 0,0
17.03.2019 19:00:00 4,3 -0,9 - 42 23 68 37 N 1000,5 21 0,2
17.03.2019 18:00:00 4,5 -1,3 - 50 27 70 38 N 999,1 19 0,0
17.03.2019 17:00:00 5,0 0,2 - 46 25 74 40 N 997,5 15 0,0
17.03.2019 16:00:00 5,6 0,1 - 52 28 76 41 N 995,8 12 0,0
17.03.2019 15:00:00 5,4 0,3 - 52 28 76 41 N 994,7 15 0,0
17.03.2019 14:00:00 5,7 0,3 - 57 31 80 43 N 993,2 13 0,2
17.03.2019 13:00:00 4,8 2,4 - 57 31 80 43 N 991,8 11 0,4
17.03.2019 12:00:00 3,9 2,1 - 57 31 80 43 N 990,5 25 0,0
17.03.2019 11:00:00 4,6 1,8 - 55 30 83 45 N 988,9 18 0,2
17.03.2019 10:00:00 3,4 0,0 - 48 26 78 42 NNE 988,0 5 0,2
17.03.2019 09:00:00 4,2 0,7 5,0 48 26 83 45 N 987,0 18 0,0
17.03.2019 08:00:00 5,0 -2,6 - 50 27 67 36 NNE 985,7 30 0,0
17.03.2019 07:00:00 4,7 -0,4 - 44 24 61 33 NNE 985,1 14 0,0
17.03.2019 06:00:00 4,4 -0,8 - 48 26 65 35 NNE 984,3 18 0,0
17.03.2019 05:00:00 4,7 0,5 - 42 23 57 31 NNE 983,6 16 0,0
17.03.2019 04:00:00 5,0 1,6 - 44 24 55 30 NNE 983,0 16 0,0
17.03.2019 03:00:00 5,2 2,5 - 35 19 50 27 NE 982,5 26 0,2
17.03.2019 02:00:00 4,3 1,7 - 31 17 48 26 NE 982,4 45 0,0
17.03.2019 01:00:00 4,1 3,0 - 11 6 - - NE 982,3 40 2,0
17.03.2019 00:00:00 3,8 2,8 - 16 9 48 26 ESE 982,6 18 0,4
16.03.2019 23:00:00 1,9 1,1 - 5 3 - - WNW 983,1 50 0,0
16.03.2019 22:00:00 2,6 1,7 - 5 3 - - W 983,7 22 1,6
16.03.2019 21:00:00 3,2 1,7 - 8 4 - - WSW 984,1 17 1,0
16.03.2019 20:00:00 4,5 1,2 - 16 9 - - E 984,5 8 0,4
16.03.2019 19:00:00 4,7 2,6 - 8 4 - - ENE 984,8 45 0,0
16.03.2019 18:00:00 4,8 2,9 - 9 5 - - E 985,1 40 0,0
16.03.2019 17:00:00 5,5 2,8 - 8 4 - - ENE 985,4 40 0,0
16.03.2019 16:00:00 6,5 2,0 - 8 4 - - SW 986,0 45 0,0
16.03.2019 15:00:00 6,6 2,4 - 9 5 - - S 986,6 23 0,0
16.03.2019 14:00:00 6,8 2,6 - 16 9 - - S 987,2 35 0,8
16.03.2019 13:00:00 5,3 2,8 - 16 9 - - SSE 987,6 4,7 0,2
16.03.2019 12:00:00 6,6 3,6 - 13 7 - - S 988,0 11 0,0
16.03.2019 11:00:00 7,7 3,0 - 16 9 - - SW 988,1 35 0,0
16.03.2019 10:00:00 7,3 3,8 - 15 8 - - SSW 988,2 40 0,0
16.03.2019 09:00:00 6,6 5,0 4,9 9 5 - - SSW 988,3 30 0,0
16.03.2019 08:00:00 3,2 2,3 - 15 8 - - SW 988,4 40 0,4
16.03.2019 07:00:00 1,3 0,4 - 16 9 - - SW 988,7 50 0,0
16.03.2019 06:00:00 1,3 0,1 - 15 8 - - SSW 988,7 35 0,2
16.03.2019 05:00:00 3,1 1,5 - 16 9 - - WSW 988,5 30 0,0
16.03.2019 04:00:00 2,9 1,3 - 15 8 - - W 988,4 30 0,0
16.03.2019 03:00:00 4,1 2,0 - 21 11 - - W 988,7 45 0,0
16.03.2019 02:00:00 4,1 1,9 - 21 11 - - W 988,5 45 0,0
16.03.2019 01:00:00 4,0 2,3 - 22 12 - - WSW 988,3 14 0,8
16.03.2019 00:00:00 3,8 1,3 - 18 10 - - W 988,1 40 0,0
15.03.2019 23:00:00 3,6 0,8 - 16 9 - - W 987,5 40 0,0
15.03.2019 22:00:00 4,4 2,2 - 21 11 - - WNW 986,8 40 0,0
15.03.2019 21:00:00 4,0 1,9 - 18 10 - - W 986,2 35 0,0
15.03.2019 20:00:00 4,6 2,3 - 16 9 - - WNW 985,7 27 0,0
15.03.2019 19:00:00 4,9 1,9 - 24 13 - - W 984,9 45 0,0
15.03.2019 18:00:00 5,2 2,2 - 22 12 - - W 984,0 50 0,0
15.03.2019 17:00:00 5,8 2,3 - 24 13 - - WNW 983,2 45 0,0
15.03.2019 16:00:00 6,6 3,8 - 28 15 - - W 982,4 30 0,0
15.03.2019 15:00:00 6,0 3,8 - 16 9 - - NW 981,8 23 0,2
15.03.2019 14:00:00 6,0 3,4 - 21 11 - - WNW 981,1 35 0,6
15.03.2019 13:00:00 5,9 3,9 - 13 7 - - NNW 980,5 45 0,0
15.03.2019 12:00:00 5,6 3,6 - 29 16 - - W 980,0 40 0,0
15.03.2019 11:00:00 5,5 3,7 - 26 14 - - W 979,6 45 0,2
15.03.2019 10:00:00 5,7 4,1 - 26 14 - - W 979,3 30 0,2
15.03.2019 09:00:00 4,1 2,8 4,9 34 18 46 25 W 979,2 8 1,0
15.03.2019 08:00:00 4,5 3,3 - 22 12 - - SW 979,3 28 0,0
15.03.2019 07:00:00 3,9 2,9 - 22 12 - - SW 979,4 45 1,8
15.03.2019 06:00:00 3,0 1,9 - 26 14 - - WSW 980,1 5 0,6
15.03.2019 05:00:00 4,7 3,3 - 16 9 - - WSW 980,2 30 0,6
15.03.2019 04:00:00 4,2 3,2 - 15 8 - - WSW 981,2 5 2,4
15.03.2019 03:00:00 4,3 3,2 - 26 14 - - SW 982,0 5 0,4
15.03.2019 02:00:00 4,2 3,3 - 18 10 - - SSW 982,7 35 0,4
15.03.2019 01:00:00 4,4 3,3 - 22 12 - - SSW 983,5 35 0,0
15.03.2019 00:00:00 4,2 3,0 - 22 12 - - S 984,5 45 2,2
14.03.2019 23:00:00 4,5 3,6 - 16 9 - - SW 985,6 12 1,2
14.03.2019 22:00:00 3,1 2,1 - 18 10 - - SSW 986,0 50 0,0
14.03.2019 21:00:00 3,1 2,2 - 16 9 - - SSW 986,5 30 0,2
14.03.2019 20:00:00 2,9 2,0 - 11 6 - - SSW 986,9 22 0,2
14.03.2019 19:00:00 2,6 1,6 - 16 9 - - SW 987,0 40 0,0
14.03.2019 18:00:00 3,9 1,9 - 15 8 - - WSW 986,9 35 0,0
14.03.2019 17:00:00 5,6 3,7 - 16 9 - - WSW 986,8 50 0,2
14.03.2019 16:00:00 6,1 4,3 - 16 9 - - S 986,7 40 0,4
14.03.2019 15:00:00 6,0 3,5 - 9 5 - - S 986,8 14 0,2
14.03.2019 14:00:00 6,9 2,7 - 9 5 - - SSW 986,8 21 0,0
14.03.2019 13:00:00 6,9 1,0 - 8 4 - - W 986,5 24 0,0
14.03.2019 12:00:00 7,0 0,8 - 4 2 - - NE 986,1 35 0,0
14.03.2019 11:00:00 6,1 0,8 - 4 2 - - WNW 985,5 28 0,0
14.03.2019 10:00:00 5,8 1,4 - 4 2 - - NE 985,2 28 0,0
14.03.2019 09:00:00 4,9 3,2 4,7 2 1 - - NNW 984,6 30 0,0
14.03.2019 08:00:00 2,0 1,2 - 4 2 - - W 984,1 25 0,0
14.03.2019 07:00:00 1,1 0,4 - 5 3 - - WSW 983,7 20 0,0
14.03.2019 06:00:00 1,5 0,6 - 4 2 - - WSW 983,5 20 0,0
14.03.2019 05:00:00 1,9 0,9 - 2 1 - - WSW 983,6 21 0,0
14.03.2019 04:00:00 2,1 1,1 - 5 3 - - WNW 984,3 16 0,0
14.03.2019 03:00:00 2,3 1,1 - 2 1 - - WNW 985,2 20 0,0
14.03.2019 02:00:00 2,8 1,4 - 11 6 - - S 985,9 16 0,0
14.03.2019 01:00:00 1,9 0,6 - 11 6 - - SSW 986,7 14 0,0
14.03.2019 00:00:00 4,2 3,0 - 22 12 - - S 984,5 45 0,0
13.03.2019 23:00:00 1,2 -0,7 - 4 2 - - WSW 988,4 17 0,0
13.03.2019 22:00:00 2,1 0,1 - 11 6 - - W 989,2 19 0,0
13.03.2019 21:00:00 1,6 -1,3 - 5 3 - - W 989,9 18 0,0
13.03.2019 20:00:00 4,0 1,1 - 15 8 - - NW 990,7 17 0,0
13.03.2019 19:00:00 4,7 1,7 - 16 9 - - NNW 990,7 25 0,0
13.03.2019 18:00:00 4,6 2,8 - 11 6 - - WNW 990,8 16 0,0
13.03.2019 17:00:00 5,4 2,6 - 26 14 - - NW 990,6 22 0,0
13.03.2019 16:00:00 6,1 3,5 - 13 7 - - W 990,3 16 0,2
13.03.2019 15:00:00 7,9 3,0 - 21 11 - - WNW 990,0 15 0,0
13.03.2019 14:00:00 7,9 3,1 - 21 11 - - W 990,1 27 0,0
13.03.2019 13:00:00 6,9 3,4 - 13 7 - - NW 990,3 29 0,0
13.03.2019 12:00:00 7,1 2,9 - 24 13 - - W 989,8 20 0,0
13.03.2019 11:00:00 6,9 2,5 - 26 14 - - WNW 989,1 26 0,0
13.03.2019 10:00:00 6,4 2,4 - 22 12 - - NW 988,3 8 0,0
13.03.2019 09:00:00 5,9 4,1 4,7 15 8 - - WNW 987,5 10 0,0
13.03.2019 08:00:00 3,8 1,9 - 5 3 - - NNW 986,2 40 0,2

tt = temperature
td = dewpoint
tt -20cm = temperature -20cm
ff = wind speed
fx = gusts
dd = wind direction
ppp = reduced air pressure
vv = visibility
rr = precipitation

Next stations